Date String (YYYY-MM-DD hh:mm:ss) UTC,Instrument flags,Ambient pressure (hPa),Sample flow (lpm),Bypass flow (lpm),Sample temperature (°C),Ambient temperature (°C),ASC tube jacket temperature (°C),LED temperature (°C),Box temperature (°C),Sample RH (%),Span deviation,Mass concentration (μg/m³),Mass concentration (μg/m³),Mass concentration (μg/m³)
DateTimeUTC,F1_M11,P_M11,Q1_M11,Q2_M11,T1_M11,T2_M11,T3_M11,T4_M11,T5_M11,U1_M11,ZSPAN_M11,X0_M11,X2_M11,X1_M11
2022-07-09 21:00:00,,0831.3,5.00,0.00,29.1,27.0,00.0,37.7,31.0,15.2,0000.0,0012.66,0003.37,0002.65
2022-07-09 21:01:00,,0831.3,5.00,0.00,29.1,26.9,00.0,37.7,30.9,15.3,0000.0,0012.41,0003.39,0002.65
2022-07-09 21:02:00,,0831.2,5.00,0.00,29.0,27.1,00.0,37.7,30.9,14.7,0000.0,0012.23,0003.37,0002.64
2022-07-09 21:03:00,,0831.3,5.01,0.00,29.0,27.2,00.0,37.7,30.9,14.9,0000.0,0011.39,0003.39,0002.65
2022-07-09 21:04:00,,0831.3,5.02,0.00,29.1,27.5,00.0,37.7,30.9,15.0,0000.0,0009.89,0003.37,0002.64
2022-07-09 21:05:00,,0831.3,5.00,0.00,29.1,27.7,00.0,37.7,31.0,15.0,0000.0,0010.03,0003.38,0002.65
2022-07-09 21:06:00,,0831.2,5.00,0.00,29.1,27.8,00.0,37.7,31.1,15.1,0000.0,0009.02,0003.39,0002.66
2022-07-09 21:07:00,,0831.3,4.99,0.00,29.1,27.2,00.0,37.7,31.0,14.5,0000.0,0008.59,0003.41,0002.66
2022-07-09 21:08:00,,0831.2,4.99,0.00,29.1,26.9,00.0,37.6,30.9,14.9,0000.0,0008.49,0003.42,0002.65
2022-07-09 21:09:00,,0831.2,5.00,0.00,29.0,27.0,00.0,37.7,30.9,15.4,0000.0,0008.16,0003.41,0002.65
2022-07-09 21:10:00,,0831.3,5.00,0.00,29.0,27.2,00.0,37.7,30.8,15.7,0000.0,0008.80,0003.45,0002.66
2022-07-09 21:11:00,,0831.3,5.00,0.00,29.0,27.3,00.0,37.7,30.9,15.2,0000.0,0009.43,0003.49,0002.67
2022-07-09 21:12:00,,0831.3,5.00,0.00,29.1,27.6,00.0,37.7,31.0,14.9,0000.0,0009.53,0003.51,0002.67
2022-07-09 21:13:00,,0831.3,5.00,0.00,29.1,27.8,00.0,37.7,31.1,14.9,0000.0,0009.77,0003.57,0002.69
2022-07-09 21:14:00,,0831.3,5.01,0.00,29.1,27.5,00.0,37.7,31.1,14.8,0000.0,0009.74,0003.55,0002.70
2022-07-09 21:15:00,,0831.3,5.00,0.00,29.1,27.0,00.0,37.6,30.9,14.7,0000.0,0009.69,0003.54,0002.72
2022-07-09 21:16:00,,0831.3,5.00,0.00,29.1,27.0,00.0,37.6,30.9,14.6,0000.0,0009.43,0003.53,0002.72
2022-07-09 21:17:00,,0831.2,5.00,0.00,29.0,27.1,00.0,37.7,30.9,14.9,0000.0,0009.28,0003.58,0002.73
2022-07-09 21:18:00,,0831.2,5.00,0.00,29.0,27.3,00.0,37.7,30.9,15.0,0000.0,0009.05,0003.59,0002.74
2022-07-09 21:19:00,,0831.2,5.00,0.00,29.1,27.5,00.0,37.7,30.9,15.3,0000.0,0008.44,0003.55,0002.74
2022-07-09 21:20:00,,0831.2,4.99,0.00,29.1,27.7,00.0,37.7,31.0,15.0,0000.0,0008.32,0003.55,0002.74
2022-07-09 21:21:00,,0831.2,5.00,0.00,29.1,27.4,00.0,37.7,31.0,15.2,0000.0,0007.72,0003.52,0002.73
2022-07-09 21:22:00,,0831.2,5.01,0.00,29.0,26.9,00.0,37.6,30.9,15.2,0000.0,0007.08,0003.51,0002.73
2022-07-09 21:23:00,,0831.2,4.99,0.00,29.0,26.9,00.0,37.6,30.9,15.0,0000.0,0007.05,0003.52,0002.74
2022-07-09 21:24:00,,0831.2,4.99,0.00,29.0,27.0,00.0,37.6,30.8,15.1,0000.0,0006.94,0003.47,0002.73
2022-07-09 21:25:00,,0831.2,5.00,0.00,29.0,27.2,00.0,37.6,30.8,14.9,0000.0,0007.41,0003.46,0002.72
2022-07-09 21:26:00,,0831.2,5.00,0.00,29.0,27.4,00.0,37.6,30.9,15.2,0000.0,0007.51,0003.47,0002.71
2022-07-09 21:27:00,,0831.2,5.01,0.00,29.1,27.7,00.0,37.7,31.0,15.3,0000.0,0007.45,0003.47,0002.72
2022-07-09 21:28:00,,0831.2,5.00,0.00,29.1,27.9,00.0,37.7,31.1,15.1,0000.0,0008.11,0003.44,0002.72
2022-07-09 21:29:00,,0831.2,5.01,0.00,29.1,27.6,00.0,37.6,31.1,14.9,0000.0,0008.46,0003.43,0002.72
2022-07-09 21:30:00,,0831.2,4.99,0.00,29.1,27.0,00.0,37.6,31.0,15.1,0000.0,0008.48,0003.42,0002.71
2022-07-09 21:31:00,,0831.2,5.00,0.00,29.1,27.0,00.0,37.6,30.9,15.3,0000.0,0008.42,0003.41,0002.71
2022-07-09 21:32:00,,0831.2,5.00,0.00,29.1,27.2,00.0,37.7,30.9,15.6,0000.0,0008.63,0003.43,0002.71
2022-07-09 21:33:00,,0831.2,5.00,0.00,29.1,27.4,00.0,37.7,30.9,15.6,0000.0,0008.68,0003.46,0002.71
2022-07-09 21:34:00,,0831.2,5.00,0.00,29.1,27.6,00.0,37.7,31.0,14.8,0000.0,0008.83,0003.45,0002.70
2022-07-09 21:35:00,,0831.2,5.00,0.00,29.1,27.7,00.0,37.7,31.1,14.8,0000.0,0009.38,0003.47,0002.72
2022-07-09 21:36:00,,0831.2,5.01,0.00,29.1,27.4,00.0,37.7,31.0,14.9,0000.0,0009.22,0003.49,0002.73
2022-07-09 21:37:00,,0831.2,5.00,0.00,29.1,26.9,00.0,37.6,30.9,14.9,0000.0,0009.16,0003.49,0002.75
2022-07-09 21:38:00,,0831.1,4.99,0.00,29.0,26.9,00.0,37.7,30.9,15.2,0000.0,0009.36,0003.46,0002.75
2022-07-09 21:39:00,,0831.2,5.00,0.00,29.0,27.1,00.0,37.7,30.9,15.3,0000.0,0009.12,0003.46,0002.74
2022-07-09 21:40:00,,0831.2,5.00,0.00,29.0,27.3,00.0,37.7,30.9,15.1,0000.0,0008.52,0003.46,0002.74
2022-07-09 21:41:00,,0831.2,5.00,0.00,29.0,27.5,00.0,37.7,31.0,14.8,0000.0,0008.55,0003.48,0002.76
2022-07-09 21:42:00,,0831.2,5.00,0.00,29.1,27.7,00.0,37.7,31.0,15.2,0000.0,0008.72,0003.52,0002.77
2022-07-09 21:43:00,,0831.2,5.00,0.00,29.1,27.9,00.0,37.7,31.1,15.1,0000.0,0008.46,0003.49,0002.78
2022-07-09 21:44:00,,0831.1,5.00,0.00,29.1,27.6,00.0,37.7,31.1,15.5,0000.0,0008.42,0003.48,0002.79
2022-07-09 21:45:00,,0831.1,5.00,0.00,29.1,27.0,00.0,37.7,31.0,15.0,0000.0,0009.26,0003.48,0002.80
2022-07-09 21:46:00,,0831.2,4.99,0.00,29.1,27.0,00.0,37.7,31.0,14.6,0000.0,0009.03,0003.52,0002.81
2022-07-09 21:47:00,,0831.2,5.00,0.00,29.1,27.2,00.0,37.7,30.9,14.7,0000.0,0008.92,0003.51,0002.80
2022-07-09 21:48:00,,0831.2,5.00,0.00,29.1,27.4,00.0,37.7,30.9,15.2,0000.0,0009.20,0003.52,0002.80
2022-07-09 21:49:00,,0831.2,5.00,0.00,29.1,27.6,00.0,37.7,31.0,15.3,0000.0,0009.49,0003.57,0002.79
2022-07-09 21:50:00,,0831.2,5.00,0.00,29.1,27.8,00.0,37.7,31.1,15.2,0000.0,0009.93,0003.58,0002.81
2022-07-09 21:51:00,,0831.2,5.00,0.00,29.2,27.8,00.0,37.7,31.1,14.9,0000.0,0010.27,0003.58,0002.82
2022-07-09 21:52:00,,0831.2,5.01,0.00,29.1,27.2,00.0,37.7,31.0,14.9,0000.0,0011.38,0003.59,0002.82
2022-07-09 21:53:00,,0831.2,4.99,0.00,29.1,27.1,00.0,37.7,31.0,14.8,0000.0,0011.50,0003.58,0002.83
2022-07-09 21:54:00,,0831.2,5.00,0.00,29.1,27.2,00.0,37.7,30.9,14.6,0000.0,0011.49,0003.56,0002.84
2022-07-09 21:55:00,,0831.2,5.00,0.00,29.1,27.3,00.0,37.7,30.9,14.6,0000.0,0012.70,0003.57,0002.85
2022-07-09 21:56:00,,0831.1,5.00,0.00,29.1,27.5,00.0,37.7,31.0,14.6,0000.0,0012.70,0003.57,0002.86
2022-07-09 21:57:00,,0831.0,5.00,0.00,29.1,27.7,00.0,37.7,31.1,14.9,0000.0,0012.33,0003.59,0002.86
2022-07-09 21:58:00,,0831.0,5.00,0.00,29.2,27.9,00.0,37.7,31.2,15.5,0000.0,0012.43,0003.60,0002.87
2022-07-09 21:59:00,,0831.1,5.00,0.00,29.2,27.6,00.0,37.7,31.1,15.0,0000.0,0012.72,0003.60,0002.87
